This is the latest recevied weather packets stored in our database for station/object KJ4EWA. If no packets are shown the sender has not sent any weather packets the latest 10 day(s).
| Time | Temp. | Humidity | Pressure | Rain* | Wind** | Luminosity | Snow |
|---|---|---|---|---|---|---|---|
| 1777563697 | 23.89° C | 89% | 1016.2 hPa | 0 mm | - | 247 W/m² | - |
| 1777563392 | 23.89° C | 89% | 1016.2 hPa | 0 mm | - | 201 W/m² | - |
| 1777563088 | 23.89° C | 88% | 1016.1 hPa | 0 mm | - | 168 W/m² | - |
| 1777562784 | 24.44° C | 87% | 1016.2 hPa | 0 mm | - | 214 W/m² | - |
| 1777562482 | 23.89° C | 90% | 1016.2 hPa | 0 mm | - | 361 W/m² | - |
| 1777562179 | 23.89° C | 93% | 1016.3 hPa | 0 mm | - | 329 W/m² | - |
| 1777561876 | 23.33° C | 92% | 1016.3 hPa | 0 mm | - | 259 W/m² | - |
| 1777561573 | 23.33° C | 91% | 1016.4 hPa | 0 mm | - | 199 W/m² | - |
| 1777561269 | 23.33° C | 93% | 1016.6 hPa | 0 mm | - | 215 W/m² | - |
| 1777560963 | 22.78° C | 91% | 1016.7 hPa | 0 mm | - | 226 W/m² | - |
| 1777560659 | 23.89° C | 93% | 1016.5 hPa | 0 mm | - | 204 W/m² | - |
| 1777560356 | 23.33° C | 91% | 1016.6 hPa | 0 mm | - | 286 W/m² | - |
| 1777560049 | 23.89° C | 94% | 1016.3 hPa | 0 mm | - | 305 W/m² | - |
| 1777559745 | 23.33° C | 92% | 1016.4 hPa | 0 mm | - | 420 W/m² | - |
| 1777559442 | 22.22° C | 95% | 1016.5 hPa | 0 mm | - | 684 W/m² | - |
| 1777559139 | 22.78° C | 98% | 1016.4 hPa | 0 mm | - | 208 W/m² | - |
| 1777558839 | 22.22° C | 98% | 1016.2 hPa | 0 mm | - | 228 W/m² | - |
| 1777558534 | 22.22° C | 98% | 1016.2 hPa | 0 mm | - | 190 W/m² | - |
| 1777558231 | 21.67° C | 97% | 1016.3 hPa | 0 mm | - | 176 W/m² | - |
| 1777557927 | 21.11° C | 99% | 1016.2 hPa | 0 mm | - | 207 W/m² | - |
| 1777557624 | 21.67° C | 99% | 1016.1 hPa | 0 mm | - | 93 W/m² | - |
| 1777557320 | 21.11° C | 99% | 1016.2 hPa | 0 mm | - | 87 W/m² | - |
| 1777557017 | 21.11° C | 99% | 1016.3 hPa | 0 mm | - | 136 W/m² | - |
| 1777556712 | 20.56° C | 99% | 1016 hPa | 0 mm | - | 73 W/m² | - |
| 1777556409 | 20.56° C | 99% | 1016 hPa | 0 mm | - | 220 W/m² | - |
* Rain latest hour (hover to see other rain measurements)
** Current wind speed in m/s (hover to see current wind gust speed)